Location: Lynch Observatory
(39.9540°N, 75.1861°W)
Time: 20:25:41
(UTC-05:00)

N. Korean satellite - Visible Passes

Search period start: 17 December 2017 00:00
Search period end: 27 December 2017 00:00
Orbit: 461 x 513 km, 97.2° (Epoch: 17 December)

Date Brightness Start Highest point End Pass type
(mag) Time Alt. Az. Time Alt. Az. Time Alt. Az.
17 Dec 9.0 06:11:05 10° NE 06:14:17 27° E 06:17:25 10° SSE visible
17 Dec 7.6 18:19:15 10° S 18:22:52 49° W 18:26:32 10° NNW visible
18 Dec 9.9 05:48:31 10° ENE 05:50:33 14° E 05:52:33 10° SE visible
18 Dec 6.5 17:55:34 10° SSE 17:59:17 80° ENE 18:03:04 10° N visible
19 Dec 7.1 17:32:18 10° SE 17:35:47 38° ENE 17:39:18 10° N visible
19 Dec 10.0 19:07:38 10° WSW 19:09:27 13° W 19:11:16 10° WNW visible
20 Dec 7.4 06:33:30 10° NNE 06:37:07 56° E 06:40:38 10° S visible
20 Dec 8.0 17:09:33 10° ESE 17:12:22 20° ENE 17:15:12 10° NNE visible
20 Dec 9.0 18:42:36 10° SSW 18:45:42 25° W 18:48:52 10° NW visible
21 Dec 9.0 06:10:19 10° NE 06:13:27 27° E 06:16:31 10° SSE visible
21 Dec 7.6 18:18:25 10° S 18:22:03 50° W 18:25:43 10° NNW visible
22 Dec 9.9 05:47:46 10° ENE 05:49:42 14° E 05:51:37 10° SE visible
22 Dec 6.5 17:54:43 10° SSE 17:58:28 78° ENE 18:02:14 10° N visible
23 Dec 7.2 17:31:29 10° SE 17:34:57 38° ENE 17:38:27 10° N visible
23 Dec 10.0 19:06:44 10° WSW 19:08:36 13° W 19:10:29 10° WNW visible
24 Dec 7.4 06:32:40 10° NNE 06:36:15 54° E 06:39:43 10° S visible
24 Dec 8.0 17:08:43 10° ESE 17:11:31 20° ENE 17:14:19 10° NNE visible
24 Dec 9.0 18:41:43 10° SSW 18:44:51 25° W 18:48:01 10° NW visible
25 Dec 9.0 06:09:29 10° NE 06:12:34 26° E 06:15:35 10° SSE visible
25 Dec 7.6 18:17:32 10° S 18:21:11 50° W 18:24:51 10° NNW visible
26 Dec 9.9 05:46:59 10° ENE 05:48:48 13° E 05:50:35 10° ESE visible
26 Dec 6.5 17:53:51 10° SSE 17:57:35 77° ENE 18:01:21 10° N visible
